#timestamp,LO_Frequency,Hit,StdDev 
1517176835.6,286047000.3,N
1517176855.4,286047000.6,P
1517176875.2,286047000.8,P
1517176895.1,286047002.1,Y
1517176896.0,286047002.1,P
1517176915.8,286047000.2,N
1517176935.7,286047001.0,N
1517176955.5,286047000.0,N
1517176975.3,286047000.9,N
1517176995.2,286046998.9,N
1517177015.0,286046996.9,Y
1517177015.9,286046996.9,P
1517177035.8,286046997.3,N
1517177055.6,286046999.4,N
1517177075.4,286046999.2,N
1517177095.3,286046996.6,N
1517177115.1,286046998.3,N
1517177135.8,286046999.1,N
1517177155.7,286046996.5,N
1517177175.5,286046999.6,N
1517177195.4,286046999.2,N
1517177215.2,286046999.4,N
1517177235.0,286046999.3,N
1517177235.9,286046999.3,N
1517177255.8,286046999.0,N
1517177275.6,286047000.6,N
1517177295.5,286046999.4,N
1517177315.3,286046998.6,N
1517177335.1,286046996.8,N
1517177355.9,286046997.1,N
1517177375.7,286046996.5,N
1517177395.6,286046998.6,N
1517177415.4,286046998.9,N
1517177435.2,286046998.7,N
1517177455.1,286046999.5,N
1517177456.0,286046999.5,N
1517177475.8,286047001.2,N
1517177495.7,286047001.1,N
1517177515.5,286046998.5,N
1517177535.3,286047000.9,N
1517177555.2,286046998.7,N
1517177575.0,286047000.9,N
1517177575.9,286047000.9,N
1517177595.8,286046998.6,N
1517177615.6,286047000.1,N
1517177635.4,286047000.0,N
1517177655.3,286047001.2,N
1517177675.1,286046998.6,N
1517177695.9,286047001.5,N
1517177715.7,286047001.0,N
1517177735.5,286046998.1,N
1517177755.4,286047001.0,N
1517177775.2,286046998.6,N
1517177795.0,286046999.9,N
1517177795.9,286046999.9,N
1517177815.8,286047000.6,N
1517177835.6,286047000.5,N
1517177855.5,286046998.2,N
1517177875.3,286046999.6,N
1517177895.1,286046996.6,N
1517177915.9,286046999.6,N
1517177935.7,286046999.3,N
1517177955.5,286046999.3,N
1517177975.4,286046998.3,N
1517177995.2,286046999.3,N
1517178015.1,286047001.1,N
1517178016.0,286047001.1,N
1517178035.8,286046998.1,N
1517178055.6,286047000.7,N
1517178075.5,286046999.8,N
1517178095.3,286047000.6,N
1517178115.2,286047000.0,N
1517178135.9,286047001.5,N
1517178155.7,286047004.0,Y
1517178175.6,286047002.3,P
1517178195.4,286047002.4,N
1517178215.2,286047002.7,N
1517178235.1,286047000.6,N
1517178236.0,286047000.6,N
1517178255.8,286047000.7,N
1517178275.7,286047002.6,N
1517178295.5,286047000.6,N
1517178315.3,286046998.2,N
1517178335.2,286047002.8,N
1517178355.0,286047002.4,N
1517178355.9,286047002.4,N
1517178375.7,286047000.1,N
1517178395.6,286047000.5,N
1517178415.4,286046999.9,N
1517178435.3,286046998.4,N
1517178455.1,286047001.1,N
1517178456.0,286047001.1,N
1517178475.8,286046999.8,N
1517178495.7,286047001.9,N
1517178515.5,286047002.2,N
1517178535.3,286046999.9,N
1517178555.2,286047002.8,N
1517178575.0,286047004.0,N
1517178575.9,286047004.0,N
1517178595.8,286047003.9,N
1517178615.6,286047002.5,N
1517178635.4,286046999.9,N
1517178655.3,286046999.8,N
1517178675.1,286046999.7,N
1517178695.8,286047001.0,N
1517178715.7,286047000.9,N
1517178735.5,286046998.2,N
1517178755.4,286046998.2,N
1517178775.2,286046998.9,N
1517178795.0,286046999.0,N
1517178795.9,286046999.0,N
1517178815.8,286046998.9,N
1517178835.6,286046996.6,N
1517178855.4,286046999.0,N
1517178875.3,286046998.2,N
1517178895.1,286046998.4,N
1517178915.9,286047002.8,N
1517178935.7,286046998.1,N
1517178955.5,286046998.5,N
1517178975.4,286047000.3,N
1517178995.2,286047000.4,N
1517179015.0,286047000.2,N
1517179016.0,286047000.2,N
1517179035.8,286047002.4,N
1517179055.6,286047002.0,N
1517179075.5,286047003.9,N
1517179095.3,286047003.6,N
1517179115.1,286047004.2,N
1517179135.9,286047004.1,N
1517179155.7,286047003.5,N
1517179175.6,286047003.5,N
1517179195.4,286047005.4,N
1517179215.2,286047004.3,N
1517179235.1,286047004.1,N
1517179236.0,286047004.1,N
1517179255.8,286047001.8,N
1517179275.6,286047001.3,N
1517179295.5,286047001.9,N
1517179315.3,286047001.9,N
1517179335.2,286047001.4,N
1517179355.9,286047002.0,N
1517179375.7,286047001.6,N
1517179395.6,286047002.2,N
1517179415.4,286046999.7,N
1517179435.2,286047000.1,N
1517179455.1,286047000.9,N
1517179456.0,286047000.9,N
1517179475.8,286047000.3,N
1517179495.7,286046999.7,N
1517179515.5,286047002.7,N
1517179535.3,286047000.0,N
1517179555.2,286047000.3,N
1517179575.0,286047002.1,N
1517179575.9,286047002.1,N
1517179595.8,286047004.3,N
1517179615.6,286047004.3,N
1517179635.4,286047001.8,N
1517179655.3,286047001.6,N
1517179675.1,286047002.5,N
1517179695.8,286047002.8,N
1517179715.7,286047002.8,N
1517179735.5,286047004.3,N
1517179755.4,286047002.6,N
1517179775.2,286047002.3,N
1517179795.0,286047001.3,N
1517179795.9,286047001.3,N
1517179815.8,286047001.8,N
1517179835.6,286047002.6,N
1517179855.4,286047004.3,Y
1517179875.3,286046999.9,P
1517179895.7,286047000.3,N
1517179915.5,286047002.8,P
1517179935.3,286046999.8,N
1517179955.2,286047001.0,N
1517179975.0,286047004.3,Y
1517179975.9,286047004.3,P
1517179995.8,286047000.3,N
1517180015.6,286047000.8,N
1517180035.4,286046998.3,N
1517180055.3,286046998.3,N
1517180075.1,286046999.2,N
1517180095.8,286046999.0,N
1517180115.7,286047001.1,N
1517180135.5,286047000.3,N
1517180155.4,286047000.7,N
1517180175.2,286047000.5,N
1517180195.0,286046999.0,N
1517180195.9,286046999.0,N
1517180215.8,286046999.1,N
1517180235.6,286046996.5,N
1517180255.5,286046997.6,N
1517180275.3,286046999.1,N
1517180295.1,286046997.0,N
1517180315.9,286046997.2,N
1517180335.7,286046998.8,N
1517180355.6,286046999.5,N
1517180375.4,286046999.2,N
1517180395.2,286046999.4,N
